Zurück zum Katalog

STARLINK-32491

AktivKommunikationVLEO
NORAD 62043·PAYLOAD·🇺🇸 United States

Gestartet Nov 21, 2024 von Cape Canaveral Space Force Station

Loading…

Nächste Überflüge (nächste 24 Stunden)

TLE

AktuellSource: CelesTrak SupGP

Epoche: Sep 15, 2026, 03:06 UTC

1 62043C 24216M   26258.12965278 -.00014826  00000+0 -53693-3 0  2582
2 62043  42.9994 273.9477 0001252 264.6206  18.3973 15.27591349    17

Verfolge STARLINK-32491 in Echtzeit mit AllMySat

Download on the App Store